SCP
0 0 0 0 0 0 0 0 0 0 0 0 0 0 0 0 0 0 0 0 0 0 0 0 0 0 0 0 0 0 0 0 -0 0 0 -0 -0 0 -0 0 0 0 -0 0 0 0 0
0 0 0 0 0 0 0 0 0 0 0 0 0 0 0 0 0 0 0 0 0 0 0 0 0 0 0 0 0 0 0 0 0 -0 0 -0 -0 0 0 0 -0 -0 -0 -0 0 0 0
0 0 0 0 0 0 0 0 0 0 0 0 0 0 0 0 0 0 0 0 0 0 0 0 0 0 0 0 0 0 0 0 0 -0 -0 0 0 -0 -0 -0 -0 -0 0 0 0 0 0
0 0 0 0 0 0 0 0 0 0 0 0 0 0 0 0 0 0 0 0 0 0 0 0 0 0 0 0 0 0 0 0 0 0 0 0 0 0 -0 -0 -0 -0 -0 0 0 0 0
0 0 0 0 0 0 0 0 0 0 0 0 0 0 0 0 0 0 0 0 0 0 0 0 0 0 0 0 0 0 0 0 0 0 0 0 0 0 0 -0 -0 -0 -0 -0 0 0 0
-0 0 0 0 0 0 0 0 0 0 0 0 0 0 0 0 0 0 0 0 0 0 0 0 0 0 0 0 0 0 0 0 0 0 0 0 0 0 0 0 -0 -0 -0 0 -0 0 0
-0 0 0 0 0 0 0 0 0 0 0 0 0 0 0 0 0 0 0 0 0 0 0 0 0 0 0 0 0 0 0 0 0 0 0 0 0 -0 0 -0 -0 -0 0 0 -0 -0 0
-0 0 0 0 0 0 0 0 0 0 0 0 0 0 0 0 0 0 0 0 0 0 0 0 0 0 0 0 0 0 0 0 0 0 0 0 -0 0 0 0 -0 -0 -0 -0 0 -0 -0
-0 0 0 0 0 0 0 0 0 0 0 0 0 0 0 0 0 0 0 0 0 0 0 0 0 0 0 0 0 0 0 0 0 0 0 -0 -0 0 -0 0 0 0 0 0 0 0 0
0 0 0 0 0 0 0 0 0 0 0 0 0 0 0 0 0 0 0 0 0 0 0 0 0 0 0 0 0 0 0 0 0 0 0 -0 0 0 0 0 0 0 0 0 0 0 0
0 0 0 0 0 0 -0 -0 -0 -0 0 0 0 0 0 0 0 0 0 0 0 0 0 0 0 0 0 0 0 0 0 0 0 0 0 0 0 0 0 0 0 0 0 0 0 0 0
0 0 0 0 0 -0 -0 -0 -0 -0 -0 -0 0 0 0 0 0 0 0 0 0 0 0 0 0 0 0 0 0 0 0 0 0 0 0 0 0 0 0 0 0 0 0 0 0 0 0
0 0 0 0 0 -0 -0 -0 -0 -0 -0 -0 -0 0 0 0 0 0 0 0 0 0 0 0 0 0 0 0 0 0 0 0 0 -0 -0 -0 0 0 0 0 0 0 0 0 0 0 0
0 0 0 0 0 -0 -0 -0 -0 -0 -0 -0 -0 0 0 0 0 0 0 0 0 0 0 0 0 0 0 0 0 0 0 0 0 0 0 -0 0 0 0 0 0 0 0 0 0 0 0
0 0 0 0 0 -0 -0 -0 -0 -0 -0 -0 0 0 0 0 0 0 0 0 0 0 0 0 0 0 0 0 0 0 0 0 0 0 0 0 0 0 0 0 0 0 0 0 0 0 0
0 0 0 0 0 0 -0 -0 -0 -0 -0 -0 0 0 0 0 0 0 0 0 0 0 0 0 0 0 0 0 0 0 0 0 -0 -0 0 0 0 0 0 0 0 0 0 0 0 0 0
0 0 0 -0 0 0 -0 -0 -0 -0 -0 -0 0 0 0 0 0 0 0 0 0 0 0 0 0 0 0 0 0 0 0 0 -0 -0 0 0 0 0 0 0 0 0 0 0 0 0 0
0 0 0 0 0 0 -0 -0 -0 -0 -0 0 0 0 0 0 0 0 0 -0 -0 0 0 0 0 0 0 0 0 0 0 0 -0 0 0 0 0 0 0 0 0 0 0 0 0 0 0
0 0 0 -0 0 0 -0 0 0 -0 0 0 0 0 0 0 0 0 0 0 -0 0 0 0 0 0 0 0 0 0 0 0 0 0 0 0 0 0 0 0 0 0 0 0 0 0 0
0 0 0 0 0 0 0 0 0 -0 0 0 0 0 0 0 0 0 0 0 0 0 0 0 0 0 0 0 0 0 0 0 0 0 0 0 0 0 0 0 0 0 0 0 0 0 0
0 0 0 0 0 0 0 0 0 -0 0 0 0 0 0 0 0 0 0 0 0 0 0 0 0 0 0 0 0 0 0 0 0 0 0 0 0 0 0 0 0 0 0 0 0 0 0
0 0 0 0 0 0 0 0 0 0 0 0 0 0 0 0 0 0 0 0 0 0 0 0 0 0 0 0 0 0 0 0 0 0 0 0 0 0 0 0 0 0 0 0 0 0 0
0 0 0 0 0 0 0 0 0 0 0 0 0 0 0 0 0 0 0 0 0 0 0 0 0 0 0 0 0 0 0 0 0 0 0 0 0 0 0 0 0 0 0 0 0 0 0
0 0 0 0 0 0 0 0 0 0 0 0 0 0 0 0 0 0 0 0 0 0 0 0 0 0 0 0 0 0 0 0 0 0 0 0 0 0 0 0 0 0 0 0 0 0 0
0 0 0 0 0 0 0 0 0 0 0 0 0 0 0 0 0 0 0 0 0 0 0 0 0 0 0 0 0 0 0 0 0 0 0 0 0 0 0 0 0 0 0 0 0 0 0
0 0 0 0 0 0 0 0 0 0 0 0 0 0 0 0 0 0 0 0 0 0 0 0 0 0 0 0 0 0 0 0 0 0 0 0 0 0 0 0 0 0 0 0 0 0 0
0 0 0 0 0 0 0 0 0 0 0 0 0 0 0 0 0 0 0 0 0 0 0 0 0 0 0 0 0 0 0 0 0 0 0 0 0 0 0 0 0 0 0 0 0 0 0
0 0 0 0 0 0 0 0 0 0 0 0 0 0 0 0 0 0 0 0 0 0 0 0 0 0 0 0 0 0 0 0 0 0 0 0 0 0 0 0 0 0 0 0 0 0 0
0 0 0 0 0 0 0 0 0 0 0 0 0 0 0 0 0 0 0 0 0 0 0 0 0 0 0 0 0 0 0 0 0 0 0 0 0 0 0 0 0 0 0 0 0 0 0
Wind_Speed_500mb
30 30 30 30 30 30 30 30 28 26 25 25 24 26 26 25 22 18 16 15 14 13 14 15 14 13 10 8 10 13 18 21 18 11 9 3 6 4 8 6 5 10 8 7 10 15 16
30 30 29 30 30 30 31 32 31 28 26 26 26 26 25 25 22 17 15 13 13 12 13 14 14 13 10 9 16 15 17 15 14 13 12 10 9 11 11 6 4 8 12 2 12 13 11
28 29 30 30 30 31 31 33 33 30 28 27 27 26 26 25 21 16 13 12 13 12 12 12 14 15 17 25 15 21 15 13 12 15 14 8 10 5 7 5 11 9 1 3 10 13 7
29 28 29 31 32 32 32 33 34 33 30 28 28 27 25 25 21 15 11 12 11 12 11 12 13 15 15 9 27 18 12 10 12 15 11 7 10 8 2 11 8 5 3 6 3 15 1
33 31 30 31 33 33 33 33 34 35 32 30 29 27 26 24 20 13 8 10 10 10 10 10 12 11 13 7 15 18 18 10 7 13 13 6 4 6 4 4 5 10 3 7 7 20 13
35 34 34 33 34 35 34 35 35 36 35 31 30 28 26 23 18 10 7 7 9 10 11 10 15 9 13 8 14 19 22 10 8 16 14 5 6 1 2 8 4 3 7 6 12 5 12
35 36 37 37 37 36 36 35 35 36 37 35 31 29 26 22 15 7 9 6 4 7 19 15 6 6 0 4 9 17 18 12 7 9 14 5 5 5 6 2 6 6 7 12 11 9 16
35 36 37 38 39 38 37 36 36 37 38 37 34 30 27 21 12 9 12 6 5 0 12 26 40 35 31 18 5 19 19 10 8 12 10 8 10 3 5 6 11 9 7 1 5 9 12
37 36 36 38 39 40 39 38 37 37 38 40 36 30 26 18 9 9 14 15 6 10 7 10 20 26 25 12 8 20 27 17 6 13 15 21 9 9 5 5 9 8 4 1 6 11 12
37 40 37 38 39 41 41 40 39 37 38 41 40 32 24 15 5 10 13 17 11 9 5 7 11 9 19 13 6 18 32 16 6 18 15 10 1 1 3 8 7 2 5 3 7 7 3
38 41 39 38 41 42 42 42 40 39 39 42 43 34 23 10 5 16 17 8 4 12 5 8 8 11 22 15 13 14 34 26 12 13 14 12 9 5 13 6 6 5 7 5 4 7 7
36 40 40 39 42 44 44 44 41 40 40 42 42 38 21 14 20 18 19 7 14 5 8 8 10 15 15 6 5 13 16 19 10 9 5 9 3 5 5 6 3 14 7 8 5 1 4
33 37 40 39 42 43 46 46 44 41 41 43 43 31 17 17 19 28 10 23 5 7 2 11 8 14 17 11 8 11 19 15 17 22 17 8 21 8 7 11 9 6 5 6 5 6 3
33 36 37 38 41 43 47 47 46 42 41 43 39 20 12 20 28 30 23 6 7 3 8 3 7 13 22 15 8 5 14 15 7 10 15 19 20 15 13 5 4 7 9 8 7 7 2
32 35 36 38 41 43 46 48 48 43 42 45 26 11 6 29 39 24 15 8 6 7 4 4 7 23 13 11 6 7 12 23 17 14 12 15 10 6 6 3 4 10 8 5 10 2 4
32 36 39 40 41 44 46 49 49 43 42 41 19 3 12 35 43 21 7 8 6 6 8 2 11 11 28 17 16 21 15 15 17 22 10 10 4 5 8 6 18 6 16 6 2 7 6
35 35 42 41 39 42 46 48 49 45 40 30 4 4 8 33 38 7 13 10 8 11 8 5 2 9 14 15 22 15 22 8 31 21 13 10 3 7 6 5 8 10 7 11 8 4 5
33 35 39 45 38 41 43 46 47 45 40 27 1 4 14 44 11 2 11 9 3 8 8 17 5 17 17 20 15 16 23 15 29 34 20 9 4 4 6 4 1 3 6 7 5 9 1
35 34 36 51 45 38 40 43 43 41 42 32 4 6 29 4 9 6 3 7 10 14 12 8 7 16 10 16 12 14 16 9 38 24 25 20 6 8 11 7 6 5 6 6 11 4 10
30 38 43 52 47 32 36 38 39 34 35 20 1 5 7 10 6 5 8 7 8 9 20 19 10 11 11 12 8 18 14 7 22 18 17 23 7 5 14 3 5 10 8 4 2 6 7
41 50 49 42 44 31 33 35 34 30 30 11 2 1 3 9 11 7 1 3 19 15 11 11 7 20 13 10 10 10 9 12 13 24 11 8 7 7 10 7 7 7 8 6 6 1 10
31 43 35 36 34 32 31 31 30 24 25 5 3 4 3 1 5 12 11 6 10 9 10 5 9 7 22 15 20 19 18 11 9 7 10 3 8 13 9 7 11 10 8 7 7 4 4
36 40 31 33 33 29 27 28 26 18 20 5 5 4 3 4 6 7 7 11 11 7 17 31 25 16 13 26 11 14 18 25 23 21 11 8 15 8 9 6 5 6 6 4 1 1 4
27 28 26 25 25 24 21 24 20 15 16 17 9 5 3 3 5 6 4 11 26 19 15 16 17 5 8 56 56 53 57 45 44 24 3 17 11 5 7 8 9 8 4 9 6 1 9
27 26 21 22 30 16 13 20 16 11 13 17 10 2 2 6 4 6 8 11 25 13 13 11 8 7 25 1 18 16 11 15 17 22 18 10 11 9 8 3 3 7 11 12 8 3 12
26 25 11 17 21 17 17 20 14 11 10 13 5 2 3 7 2 5 7 7 7 8 1 4 8 6 10 5 9 9 6 6 6 6 9 17 16 7 7 8 9 5 15 14 7 11 31
25 25 10 5 7 13 16 21 15 11 9 11 6 4 5 8 7 5 3 9 10 5 4 4 17 5 6 4 7 5 5 2 8 14 8 5 6 7 8 4 2 8 15 21 9 5 40
35 23 14 8 12 13 16 18 17 11 7 7 8 6 4 10 23 13 8 2 8 10 4 14 6 5 4 6 5 5 6 3 5 5 2 7 9 6 6 5 9 20 14 11 6 20 32
42 28 22 17 14 17 19 21 14 13 7 5 7 12 12 16 17 22 31 31 28 20 14 9 8 7 4 6 4 7 6 6 4 8 1 5 1 5 6 2 2 9 3 5 17 31 23
Wind_Direction_500mb
16 15 12 11 9 7 3 359 355 351 348 345 343 339 336 331 324 309 287 274 262 262 267 272 272 271 269 243 219 133 111 134 154 175 218 273 272 310 302 279 253 243 277 179 251 139 124
12 12 10 9 6 4 2 359 355 352 348 344 342 339 335 331 323 310 287 267 259 254 258 267 271 267 250 238 195 174 144 135 151 185 215 209 227 282 271 257 278 301 297 106 157 151 149
5 8 7 6 5 2 1 359 357 351 347 345 341 338 333 329 321 308 284 261 254 252 256 265 271 271 255 239 184 165 167 155 166 189 223 229 281 258 314 282 331 320 279 137 142 188 156
3 1 4 3 2 2 0 358 357 353 349 345 342 336 333 328 320 304 275 257 245 251 254 263 271 277 252 212 220 203 193 168 172 180 206 247 301 327 303 312 27 35 69 223 132 166 174
9 4 359 359 359 359 359 357 355 354 349 344 341 336 331 327 317 299 266 244 243 245 251 255 267 260 257 230 219 214 194 166 172 174 185 237 326 50 355 35 103 31 326 285 284 202 144
8 7 3 357 355 355 357 354 353 352 349 344 340 337 332 328 318 290 244 223 241 244 245 248 248 276 256 151 168 183 189 195 159 163 133 179 73 115 96 25 140 290 321 252 256 174 199
1 2 2 1 357 353 353 352 350 349 348 343 340 337 334 327 314 262 212 168 222 254 225 211 203 248 301 21 192 185 188 183 153 172 181 64 220 247 341 313 328 288 261 265 265 220 194
356 355 356 357 356 355 351 349 347 345 344 343 337 336 335 327 309 231 202 186 204 234 300 248 245 258 258 290 301 176 181 164 170 170 140 177 233 120 171 243 248 253 256 285 37 120 207
352 349 349 351 352 352 350 347 344 342 340 340 334 333 335 327 298 225 205 198 203 304 278 274 228 243 246 239 223 197 181 163 160 163 177 210 137 209 184 226 276 202 255 124 118 117 64
346 348 345 347 348 348 347 344 342 338 336 335 333 329 331 322 249 195 190 200 246 261 295 200 210 222 188 176 246 191 188 187 183 182 166 217 206 174 27 274 253 154 249 94 140 188 150
338 342 341 342 344 345 345 342 338 337 333 331 329 325 321 273 226 177 167 173 179 158 220 129 156 175 169 183 137 175 173 186 205 169 189 168 167 229 330 214 212 74 52 25 62 99 173
328 333 337 338 340 342 343 341 336 335 332 329 325 320 305 251 210 173 158 166 146 223 236 164 143 161 157 205 143 130 168 171 154 144 179 194 169 252 239 226 116 141 99 71 74 115 167
323 325 331 334 337 339 341 339 336 334 332 327 324 315 280 220 188 180 175 149 179 239 333 162 168 168 170 159 168 152 169 151 177 172 190 219 253 260 212 219 101 154 174 264 249 205 15
314 318 325 331 334 337 340 339 337 334 333 329 326 308 256 192 174 180 166 194 212 259 247 71 138 144 185 160 170 130 149 168 85 147 168 191 218 204 187 232 195 182 244 237 253 209 44
316 319 321 325 330 335 338 339 337 335 336 332 326 300 194 174 168 169 170 201 236 216 329 356 142 171 172 182 165 166 187 190 184 185 172 184 230 202 47 126 243 153 200 48 119 85 245
311 315 316 318 325 332 336 338 337 335 340 337 331 226 158 171 175 169 200 227 246 233 316 284 204 197 190 169 172 191 180 183 195 199 196 172 184 79 111 96 60 236 128 165 167 182 228
306 313 318 316 323 327 333 336 337 335 344 344 333 161 179 174 173 182 209 230 271 271 225 335 333 192 186 166 184 172 194 185 195 173 195 161 249 118 160 23 153 149 173 67 106 338 253
305 311 319 319 326 326 327 335 338 337 347 348 114 159 143 145 173 236 217 213 274 277 269 284 250 229 191 164 166 191 201 240 178 150 173 169 111 82 61 41 192 2 109 176 223 179 115
293 299 315 316 318 321 324 331 337 340 348 353 29 96 165 145 204 202 221 258 252 274 263 221 239 219 193 165 172 198 203 185 159 154 161 175 202 151 134 176 171 93 76 96 99 113 179
294 297 306 312 319 319 322 327 334 338 344 344 229 145 163 236 247 229 203 268 254 276 265 240 239 179 167 195 214 178 167 149 192 166 148 151 126 209 206 151 120 147 119 128 287 212 155
288 289 296 307 313 322 323 324 332 338 343 344 263 215 186 189 215 179 154 282 288 290 244 219 221 223 183 154 168 173 156 134 104 141 111 188 149 129 77 116 101 105 136 165 228 343 249
297 296 300 304 317 318 321 322 331 340 342 351 354 344 301 176 149 170 186 236 255 266 242 250 231 358 215 181 182 178 161 171 164 158 135 95 124 132 66 76 113 109 76 98 72 113 278
296 310 309 308 313 313 317 320 331 344 356 331 335 318 319 151 157 189 208 224 262 357 254 247 279 294 250 228 212 127 139 129 137 148 134 127 144 156 136 208 179 167 18 331 139 192 262
323 318 322 321 321 316 315 318 330 344 352 6 333 314 303 195 206 212 226 252 281 269 253 294 321 198 103 112 108 96 90 90 82 62 94 130 103 68 122 185 209 34 322 231 167 206 222
329 330 335 356 345 328 332 330 330 335 334 349 329 284 328 276 254 257 274 269 298 283 227 245 344 147 183 253 109 105 99 102 54 43 39 89 118 99 144 116 2 216 204 187 208 178 187
333 333 5 22 6 359 347 337 325 323 320 335 337 206 314 303 161 307 303 278 1 295 154 314 4 125 195 31 76 110 109 111 103 96 57 70 81 111 156 176 215 106 177 189 169 257 178
337 333 342 357 358 331 334 336 328 318 313 329 256 260 314 280 284 337 2 9 318 305 273 333 340 1 32 75 89 106 84 3 140 148 147 107 50 126 148 184 242 155 146 149 204 1 166
340 332 327 289 291 294 313 329 327 310 295 310 259 256 284 283 285 276 277 255 347 31 340 323 14 29 32 76 116 112 125 102 101 83 198 161 137 141 128 179 236 155 140 208 81 129 152
333 335 324 292 293 293 296 304 312 312 278 277 239 252 281 279 272 284 274 279 280 277 277 41 333 332 278 104 99 129 125 152 140 158 141 170 325 174 231 96 65 171 65 169 141 145 138
Wind_Speed_850mb
30 30 30 30 30 30 30 30 28 26 25 25 24 26 26 25 22 18 16 15 14 13 14 15 14 13 10 8 10 13 18 21 18 11 9 3 6 4 8 6 5 10 8 7 10 15 16
30 30 29 30 30 30 31 32 31 28 26 26 26 26 25 25 22 17 15 13 13 12 13 14 14 13 10 9 16 15 17 15 14 13 12 10 9 11 11 6 4 8 12 2 12 13 11
28 29 30 30 30 31 31 33 33 30 28 27 27 26 26 25 21 16 13 12 13 12 12 12 14 15 17 25 15 21 15 13 12 15 14 8 10 5 7 5 11 9 1 3 10 13 7
29 28 29 31 32 32 32 33 34 33 30 28 28 27 25 25 21 15 11 12 11 12 11 12 13 15 15 9 27 18 12 10 12 15 11 7 10 8 2 11 8 5 3 6 3 15 1
33 31 30 31 33 33 33 33 34 35 32 30 29 27 26 24 20 13 8 10 10 10 10 10 12 11 13 7 15 18 18 10 7 13 13 6 4 6 4 4 5 10 3 7 7 20 13
35 34 34 33 34 35 34 35 35 36 35 31 30 28 26 23 18 10 7 7 9 10 11 10 15 9 13 8 14 19 22 10 8 16 14 5 6 1 2 8 4 3 7 6 12 5 12
35 36 37 37 37 36 36 35 35 36 37 35 31 29 26 22 15 7 9 6 4 7 19 15 6 6 0 4 9 17 18 12 7 9 14 5 5 5 6 2 6 6 7 12 11 9 16
35 36 37 38 39 38 37 36 36 37 38 37 34 30 27 21 12 9 12 6 5 0 12 26 40 35 31 18 5 19 19 10 8 12 10 8 10 3 5 6 11 9 7 1 5 9 12
37 36 36 38 39 40 39 38 37 37 38 40 36 30 26 18 9 9 14 15 6 10 7 10 20 26 25 12 8 20 27 17 6 13 15 21 9 9 5 5 9 8 4 1 6 11 12
37 40 37 38 39 41 41 40 39 37 38 41 40 32 24 15 5 10 13 17 11 9 5 7 11 9 19 13 6 18 32 16 6 18 15 10 1 1 3 8 7 2 5 3 7 7 3
38 41 39 38 41 42 42 42 40 39 39 42 43 34 23 10 5 16 17 8 4 12 5 8 8 11 22 15 13 14 34 26 12 13 14 12 9 5 13 6 6 5 7 5 4 7 7
36 40 40 39 42 44 44 44 41 40 40 42 42 38 21 14 20 18 19 7 14 5 8 8 10 15 15 6 5 13 16 19 10 9 5 9 3 5 5 6 3 14 7 8 5 1 4
33 37 40 39 42 43 46 46 44 41 41 43 43 31 17 17 19 28 10 23 5 7 2 11 8 14 17 11 8 11 19 15 17 22 17 8 21 8 7 11 9 6 5 6 5 6 3
33 36 37 38 41 43 47 47 46 42 41 43 39 20 12 20 28 30 23 6 7 3 8 3 7 13 22 15 8 5 14 15 7 10 15 19 20 15 13 5 4 7 9 8 7 7 2
32 35 36 38 41 43 46 48 48 43 42 45 26 11 6 29 39 24 15 8 6 7 4 4 7 23 13 11 6 7 12 23 17 14 12 15 10 6 6 3 4 10 8 5 10 2 4
32 36 39 40 41 44 46 49 49 43 42 41 19 3 12 35 43 21 7 8 6 6 8 2 11 11 28 17 16 21 15 15 17 22 10 10 4 5 8 6 18 6 16 6 2 7 6
35 35 42 41 39 42 46 48 49 45 40 30 4 4 8 33 38 7 13 10 8 11 8 5 2 9 14 15 22 15 22 8 31 21 13 10 3 7 6 5 8 10 7 11 8 4 5
33 35 39 45 38 41 43 46 47 45 40 27 1 4 14 44 11 2 11 9 3 8 8 17 5 17 17 20 15 16 23 15 29 34 20 9 4 4 6 4 1 3 6 7 5 9 1
35 34 36 51 45 38 40 43 43 41 42 32 4 6 29 4 9 6 3 7 10 14 12 8 7 16 10 16 12 14 16 9 38 24 25 20 6 8 11 7 6 5 6 6 11 4 10
30 38 43 52 47 32 36 38 39 34 35 20 1 5 7 10 6 5 8 7 8 9 20 19 10 11 11 12 8 18 14 7 22 18 17 23 7 5 14 3 5 10 8 4 2 6 7
41 50 49 42 44 31 33 35 34 30 30 11 2 1 3 9 11 7 1 3 19 15 11 11 7 20 13 10 10 10 9 12 13 24 11 8 7 7 10 7 7 7 8 6 6 1 10
31 43 35 36 34 32 31 31 30 24 25 5 3 4 3 1 5 12 11 6 10 9 10 5 9 7 22 15 20 19 18 11 9 7 10 3 8 13 9 7 11 10 8 7 7 4 4
36 40 31 33 33 29 27 28 26 18 20 5 5 4 3 4 6 7 7 11 11 7 17 31 25 16 13 26 11 14 18 25 23 21 11 8 15 8 9 6 5 6 6 4 1 1 4
27 28 26 25 25 24 21 24 20 15 16 17 9 5 3 3 5 6 4 11 26 19 15 16 17 5 8 56 56 53 57 45 44 24 3 17 11 5 7 8 9 8 4 9 6 1 9
27 26 21 22 30 16 13 20 16 11 13 17 10 2 2 6 4 6 8 11 25 13 13 11 8 7 25 1 18 16 11 15 17 22 18 10 11 9 8 3 3 7 11 12 8 3 12
26 25 11 17 21 17 17 20 14 11 10 13 5 2 3 7 2 5 7 7 7 8 1 4 8 6 10 5 9 9 6 6 6 6 9 17 16 7 7 8 9 5 15 14 7 11 31
25 25 10 5 7 13 16 21 15 11 9 11 6 4 5 8 7 5 3 9 10 5 4 4 17 5 6 4 7 5 5 2 8 14 8 5 6 7 8 4 2 8 15 21 9 5 40
35 23 14 8 12 13 16 18 17 11 7 7 8 6 4 10 23 13 8 2 8 10 4 14 6 5 4 6 5 5 6 3 5 5 2 7 9 6 6 5 9 20 14 11 6 20 32
42 28 22 17 14 17 19 21 14 13 7 5 7 12 12 16 17 22 31 31 28 20 14 9 8 7 4 6 4 7 6 6 4 8 1 5 1 5 6 2 2 9 3 5 17 31 23
Wind_Direction_850mb
16 15 12 11 9 7 3 359 355 351 348 345 343 339 336 331 324 309 287 274 262 262 267 272 272 271 269 243 219 133 111 134 154 175 218 273 272 310 302 279 253 243 277 179 251 139 124
12 12 10 9 6 4 2 359 355 352 348 344 342 339 335 331 323 310 287 267 259 254 258 267 271 267 250 238 195 174 144 135 151 185 215 209 227 282 271 257 278 301 297 106 157 151 149
5 8 7 6 5 2 1 359 357 351 347 345 341 338 333 329 321 308 284 261 254 252 256 265 271 271 255 239 184 165 167 155 166 189 223 229 281 258 314 282 331 320 279 137 142 188 156
3 1 4 3 2 2 0 358 357 353 349 345 342 336 333 328 320 304 275 257 245 251 254 263 271 277 252 212 220 203 193 168 172 180 206 247 301 327 303 312 27 35 69 223 132 166 174
9 4 359 359 359 359 359 357 355 354 349 344 341 336 331 327 317 299 266 244 243 245 251 255 267 260 257 230 219 214 194 166 172 174 185 237 326 50 355 35 103 31 326 285 284 202 144
8 7 3 357 355 355 357 354 353 352 349 344 340 337 332 328 318 290 244 223 241 244 245 248 248 276 256 151 168 183 189 195 159 163 133 179 73 115 96 25 140 290 321 252 256 174 199
1 2 2 1 357 353 353 352 350 349 348 343 340 337 334 327 314 262 212 168 222 254 225 211 203 248 301 21 192 185 188 183 153 172 181 64 220 247 341 313 328 288 261 265 265 220 194
356 355 356 357 356 355 351 349 347 345 344 343 337 336 335 327 309 231 202 186 204 234 300 248 245 258 258 290 301 176 181 164 170 170 140 177 233 120 171 243 248 253 256 285 37 120 207
352 349 349 351 352 352 350 347 344 342 340 340 334 333 335 327 298 225 205 198 203 304 278 274 228 243 246 239 223 197 181 163 160 163 177 210 137 209 184 226 276 202 255 124 118 117 64
346 348 345 347 348 348 347 344 342 338 336 335 333 329 331 322 249 195 190 200 246 261 295 200 210 222 188 176 246 191 188 187 183 182 166 217 206 174 27 274 253 154 249 94 140 188 150
338 342 341 342 344 345 345 342 338 337 333 331 329 325 321 273 226 177 167 173 179 158 220 129 156 175 169 183 137 175 173 186 205 169 189 168 167 229 330 214 212 74 52 25 62 99 173
328 333 337 338 340 342 343 341 336 335 332 329 325 320 305 251 210 173 158 166 146 223 236 164 143 161 157 205 143 130 168 171 154 144 179 194 169 252 239 226 116 141 99 71 74 115 167
323 325 331 334 337 339 341 339 336 334 332 327 324 315 280 220 188 180 175 149 179 239 333 162 168 168 170 159 168 152 169 151 177 172 190 219 253 260 212 219 101 154 174 264 249 205 15
314 318 325 331 334 337 340 339 337 334 333 329 326 308 256 192 174 180 166 194 212 259 247 71 138 144 185 160 170 130 149 168 85 147 168 191 218 204 187 232 195 182 244 237 253 209 44
316 319 321 325 330 335 338 339 337 335 336 332 326 300 194 174 168 169 170 201 236 216 329 356 142 171 172 182 165 166 187 190 184 185 172 184 230 202 47 126 243 153 200 48 119 85 245
311 315 316 318 325 332 336 338 337 335 340 337 331 226 158 171 175 169 200 227 246 233 316 284 204 197 190 169 172 191 180 183 195 199 196 172 184 79 111 96 60 236 128 165 167 182 228
306 313 318 316 323 327 333 336 337 335 344 344 333 161 179 174 173 182 209 230 271 271 225 335 333 192 186 166 184 172 194 185 195 173 195 161 249 118 160 23 153 149 173 67 106 338 253
305 311 319 319 326 326 327 335 338 337 347 348 114 159 143 145 173 236 217 213 274 277 269 284 250 229 191 164 166 191 201 240 178 150 173 169 111 82 61 41 192 2 109 176 223 179 115
293 299 315 316 318 321 324 331 337 340 348 353 29 96 165 145 204 202 221 258 252 274 263 221 239 219 193 165 172 198 203 185 159 154 161 175 202 151 134 176 171 93 76 96 99 113 179
294 297 306 312 319 319 322 327 334 338 344 344 229 145 163 236 247 229 203 268 254 276 265 240 239 179 167 195 214 178 167 149 192 166 148 151 126 209 206 151 120 147 119 128 287 212 155
288 289 296 307 313 322 323 324 332 338 343 344 263 215 186 189 215 179 154 282 288 290 244 219 221 223 183 154 168 173 156 134 104 141 111 188 149 129 77 116 101 105 136 165 228 343 249
297 296 300 304 317 318 321 322 331 340 342 351 354 344 301 176 149 170 186 236 255 266 242 250 231 358 215 181 182 178 161 171 164 158 135 95 124 132 66 76 113 109 76 98 72 113 278
296 310 309 308 313 313 317 320 331 344 356 331 335 318 319 151 157 189 208 224 262 357 254 247 279 294 250 228 212 127 139 129 137 148 134 127 144 156 136 208 179 167 18 331 139 192 262
323 318 322 321 321 316 315 318 330 344 352 6 333 314 303 195 206 212 226 252 281 269 253 294 321 198 103 112 108 96 90 90 82 62 94 130 103 68 122 185 209 34 322 231 167 206 222
329 330 335 356 345 328 332 330 330 335 334 349 329 284 328 276 254 257 274 269 298 283 227 245 344 147 183 253 109 105 99 102 54 43 39 89 118 99 144 116 2 216 204 187 208 178 187
333 333 5 22 6 359 347 337 325 323 320 335 337 206 314 303 161 307 303 278 1 295 154 314 4 125 195 31 76 110 109 111 103 96 57 70 81 111 156 176 215 106 177 189 169 257 178
337 333 342 357 358 331 334 336 328 318 313 329 256 260 314 280 284 337 2 9 318 305 273 333 340 1 32 75 89 106 84 3 140 148 147 107 50 126 148 184 242 155 146 149 204 1 166
340 332 327 289 291 294 313 329 327 310 295 310 259 256 284 283 285 276 277 255 347 31 340 323 14 29 32 76 116 112 125 102 101 83 198 161 137 141 128 179 236 155 140 208 81 129 152
333 335 324 292 293 293 296 304 312 312 278 277 239 252 281 279 272 284 274 279 280 277 277 41 333 332 278 104 99 129 125 152 140 158 141 170 325 174 231 96 65 171 65 169 141 145 138